[[{"header":{"parameterUnit":"m.s-1","parameterCategory":2,"la1":30.2991,"la2":30.254,"lo1":-89.0895,"lo2":-89.0444,"dy":0.0017,"dx":0.0017,"nx":28,"ny":28,"refTime":"2024-07-16T09:00:00:Z","depth":"0","parameterNumber":2,"parameterNumberName":"U-component_of_CURRENTS"},"data":[0,0,0,0,0,0,0,0,0,0,0,0,0,0,0,0,0,0,0,0,0,0,0,0,0,0,0,0,0,0,0,0,0,0,0,0,0,0,0,0,0,0,0,0,0,0,0,0,0,0,0,0,0,0,0,0,0,0,0.3507,0.3506,0,0.3433,0.3432,0.3431,0.343,0.3431,0.3432,0.3433,0.3411,0.3409,0.3408,0,0,0,0,0,0,0,0,0,0,0,0,0,0.3448,0.345,0.3507,0.3506,0.3505,0.3433,0.3432,0.3431,0.3429,0.3431,0.3432,0.3434,0.3412,0.341,0.3407,0,0,0,0,0,0,0,0,0,0,0,0,0,0.3431,0.3451,0.3507,0.3499,0.3498,0.3434,0.3432,0.343,0.3429,0.3431,0.3433,0.3435,0.3412,0.341,0.3407,0.3353,0,0,0.3399,0.3398,0,0,0,0,0,0,0,0,0.3432,0.3433,0.3501,0.3499,0.3498,0.3446,0.3403,0.3408,0.3429,0.3451,0.3433,0.3435,0.3428,0.3425,0.3401,0.3352,0.3351,0.3399,0.3397,0.3396,0.3395,0,0,0,0,0,0,0,0.3434,0.3435,0.3474,0.35,0.3498,0.3431,0.3433,0.3403,0.3428,0.3449,0.345,0.3447,0.3428,0.3403,0.34,0.3351,0.3399,0.3397,0.3395,0.3394,0.3357,0.3357,0,0,0,0,0,0,0.3459,0.3437,0.3476,0.3472,0.3473,0.3432,0.3433,0.3457,0.3427,0.3425,0.3446,0.3447,0.3407,0.3403,0.34,0.3364,0.3396,0.3394,0.3392,0.3356,0.3357,0.3358,0,0,0,0,0,0,0.3458,0.3464,0.3479,0.3453,0.3452,0.3433,0.3459,0.3455,0.3437,0.3425,0.3423,0.3433,0.3408,0.3403,0.3371,0.3363,0.3393,0.339,0.3356,0.3356,0.3357,0.3274,0,0,0,0,0,0,0.3457,0.3465,0.348,0.3457,0.3454,0.3438,0.3458,0.3452,0.3434,0.3435,0.3413,0.3413,0.3409,0.3375,0.3368,0.336,0.3388,0.3355,0.3356,0.3357,0.3276,0.3272,0.3269,0,0,0,0,0,0.3456,0.3463,0.3482,0.3486,0.3481,0.3437,0.3428,0.3417,0.3432,0.341,0.34,0.3414,0.338,0.3371,0.3364,0.3354,0.3354,0.3356,0.3357,0.3278,0.3273,0.3269,0,0,0,0,0,0,0.3436,0.3464,0.3484,0.35,0.3474,0.3439,0.3413,0.3413,0.3384,0.339,0.3388,0.3385,0.3362,0.3373,0.3364,0.3357,0.3382,0.3382,0.3325,0.332,0.3317,0.33,0.3386,0,0,0,0,0,0.3445,0.346,0.3464,0.3467,0.346,0.3438,0.3418,0.3413,0.3389,0.3378,0.3359,0.336,0.3358,0.3351,0.3343,0.3312,0.333,0.3318,0.3314,0.331,0.3298,0.3353,0.3352,0.3362,0.3362,0.3362,0,0,0.3429,0.3449,0.3454,0.3463,0.3442,0.3404,0.3429,0.3396,0.3359,0.3379,0.3316,0.3332,0.3349,0.3322,0.3317,0.3329,0.3307,0.3312,0.3308,0.3298,0.3354,0.3353,0.3352,0.3363,0.3363,0.3363,0,0,0.3385,0.3432,0.342,0.3404,0.3388,0.3373,0.3367,0.3333,0.3318,0.3264,0.3291,0.3301,0.3263,0.3283,0.3291,0.3265,0.3285,0.3279,0.3235,0.3288,0.3287,0.3286,0.3255,0.3252,0.3277,0.3277,0.3277,0,0.3361,0.3365,0.3398,0.3372,0.3344,0.336,0.331,0.329,0.3244,0.3227,0.324,0.323,0.3247,0.3245,0.3243,0.3253,0.326,0.324,0.328,0.328,0.3281,0.325,0.3248,0.3273,0.3274,0.3274,0.3274,0,0.3303,0.3299,0.328,0.3267,0.3239,0.3197,0.3186,0.3156,0.3148,0.3136,0.3123,0.3147,0.3154,0.3174,0.3189,0.3212,0.3202,0.3264,0.3281,0.3274,0.3242,0.3242,0.3268,0.3269,0.327,0.3271,0,0,0.3247,0.3243,0.3231,0.3206,0.3182,0.3145,0.3097,0.3056,0.3029,0.302,0.2989,0.3015,0.3056,0.3072,0.3119,0.3163,0.3164,0.3206,0.3211,0.3154,0.3214,0.298,0.2957,0.3236,0.3237,0.3238,0.3169,0,0.3177,0.3123,0.3131,0.3043,0.3007,0.3008,0.296,0.2935,0.2923,0.29,0.2962,0.2957,0.3013,0.3027,0.308,0.3158,0.3168,0.3172,0.3248,0.3248,0.3025,0.2951,0.2779,0.2684,0.3169,0.3169,0.3168,0,0.3102,0.3081,0.3002,0.2949,0.2931,0.2883,0.2821,0.278,0.2782,0.2782,0.281,0.2856,0.2909,0.2976,0.3071,0.3071,0.3122,0.3177,0.3178,0.2988,0.3013,0.2784,0.2666,0.2584,0.3168,0.3168,0.3168,0,0.3039,0.2974,0.2912,0.2891,0.2844,0.2802,0.2769,0.2745,0.2711,0.2719,0.2712,0.2781,0.2817,0.2918,0.3005,0.3052,0.3092,0.3185,0.3002,0.2985,0.2864,0.2832,0.2658,0.3235,0.3235,0.3235,0.3235,0,0.2964,0.2905,0.2882,0.2848,0.2766,0.2748,0.2667,0.2652,0.2634,0.2598,0.2661,0.2654,0.2814,0.2853,0.2956,0.2924,0.3052,0.2944,0.2946,0.2821,0.2788,0.2734,0.2724,0.3232,0.3233,0.3233,0.3234,0,0.2904,0.2889,0.2817,0.2765,0.274,0.2683,0.261,0.2563,0.2555,0.2515,0.2519,0.2561,0.2583,0.2676,0.2807,0.2811,0.2729,0.2812,0.2587,0.256,0.2268,0.226,0.203,0.2002,0.2579,0.2573,0.2568,0,0.2868,0.2832,0.2766,0.2727,0.2701,0.2623,0.2571,0.2531,0.2483,0.2451,0.2431,0.242,0.2386,0.2398,0.2405,0.2417,0.2476,0.2252,0.2305,0.2154,0.2155,0.215,0.215,0.2116,0.2107,0.21,0.2094,0,0.2813,0.2798,0.2758,0.268,0.2614,0.2528,0.2454,0.2401,0.2354,0.2318,0.2251,0.2213,0.2136,0.2016,0.1959,0.1993,0.2068,0.2098,0.2058,0.1816,0.1694,0.1701,0.2218,0.2032,0.2038,0.2043,0.2046,0.2048,0.2782,0.2743,0.2699,0.2604,0.2538,0.2426,0.2319,0.2253,0.2153,0.2016,0.207,0.1911,0.1754,0.1616,0.1621,0.1424,0.1579,0.1406,0.142,0.1438,0.1347,0.163,0.1377,0.1379,0.1381,0.1383,0.1384,0,0.2708,0.2676,0.2616,0.249,0.2379,0.2362,0.2224,0.2091,0.1937,0.1819,0.172,0.1437,0.1236,0.1133,0.0891,0.079,0.0887,0.0777,0.081,0.0867,0.1209,0.1124,0.0662,0.0662,0.0663,0.0663,0.0663,0.0663,0.2678,0.2595,0.2546,0.2349,0.226,0.2049,0.1944,0.1781,0.1646,0.1341,0.1111,0.1024,0.0826,0.0518,0.0324,0.034,0.0396,0.0266,0.0405,0.0703,0.0768,0.083,0.0748,0.0215,0.0214,0.0054,0.0052,0.005]},{"header":{"parameterUnit":"m.s-1","parameterCategory":2,"la1":30.2991,"la2":30.254,"lo1":-89.0895,"lo2":-89.0444,"dy":0.0017,"dx":0.0017,"nx":28,"ny":28,"refTime":"2024-07-16T09:00:00:Z","depth":"0","parameterNumber":3,"parameterNumberName":"V-component_of_CURRENTS"},"data":[0,0,0,0,0,0,0,0,0,0,0,0,0,0,0,0,0,0,0,0,0,0,0,0,0,0,0,0,0,0,0,0,0,0,0,0,0,0,0,0,0,0,0,0,0,0,0,0,0,0,0,0,0,0,0,0,0,0,0.0629,0.0631,0,0.0784,0.0785,0.0787,0.0854,0.0854,0.0854,0.0854,0.1046,0.1051,0.1057,0,0,0,0,0,0,0,0,0,0,0,0,0,0.0413,0.0416,0.0629,0.0631,0.0633,0.0783,0.0785,0.0787,0.0854,0.0854,0.0854,0.0854,0.1045,0.1051,0.1057,0,0,0,0,0,0,0,0,0,0,0,0,0,0.0531,0.0418,0.0628,0.0684,0.0691,0.0783,0.0785,0.0788,0.0854,0.0854,0.0854,0.0854,0.1042,0.105,0.1058,0.1114,0,0,0.1082,0.1086,0,0,0,0,0,0,0,0,0.0524,0.0538,0.0674,0.0681,0.0688,0.08,0.078,0.0899,0.0855,0.0792,0.0854,0.0853,0.0968,0.0982,0.1011,0.1123,0.1131,0.1083,0.1088,0.1091,0.1094,0,0,0,0,0,0,0,0.0516,0.0532,0.069,0.0676,0.0685,0.0709,0.0725,0.0803,0.088,0.0798,0.0803,0.0821,0.0972,0.1003,0.1016,0.1134,0.1083,0.109,0.1095,0.1098,0.1331,0.1332,0,0,0,0,0,0,0.0497,0.0525,0.0685,0.0694,0.0604,0.0713,0.0731,0.0764,0.0879,0.0896,0.0821,0.0823,0.0989,0.1006,0.1023,0.114,0.1091,0.1099,0.1103,0.133,0.1331,0.1333,0,0,0,0,0,0,0.0492,0.051,0.0679,0.0612,0.0635,0.0717,0.0753,0.0767,0.0803,0.0896,0.0914,0.0843,0.099,0.1012,0.1106,0.1146,0.1102,0.111,0.1328,0.133,0.1332,0.1346,0,0,0,0,0,0,0.0485,0.0508,0.0523,0.0611,0.0638,0.0736,0.0754,0.077,0.0815,0.0819,0.0921,0.0938,0.0991,0.1094,0.1114,0.1156,0.1116,0.1326,0.1329,0.1331,0.1344,0.1349,0.1353,0,0,0,0,0,0.0477,0.0501,0.0523,0.0542,0.0658,0.0737,0.0753,0.0809,0.0816,0.0838,0.091,0.0935,0.1124,0.1102,0.1125,0.1171,0.1325,0.1328,0.1331,0.1342,0.1348,0.1352,0,0,0,0,0,0,0.0427,0.0513,0.0539,0.0591,0.0658,0.0749,0.0771,0.0809,0.0883,0.0885,0.0964,0.0988,0.1087,0.1122,0.1095,0.1242,0.1225,0.1233,0.1225,0.1231,0.1235,0.1227,0.1123,0,0,0,0,0,0.042,0.0454,0.0544,0.0586,0.0612,0.0689,0.0726,0.0768,0.0844,0.0875,0.0951,0.1029,0.1119,0.1165,0.1243,0.1327,0.1319,0.1367,0.1371,0.1375,0.1383,0.1392,0.1397,0.1343,0.1343,0.1343,0,0,0.0414,0.0463,0.0486,0.0575,0.0625,0.069,0.0711,0.0767,0.0835,0.0887,0.099,0.1052,0.1144,0.1244,0.1289,0.1278,0.1383,0.1379,0.1381,0.1388,0.1396,0.1401,0.1405,0.1345,0.1345,0.1345,0,0,0.0417,0.0459,0.0488,0.0545,0.062,0.0679,0.0694,0.0789,0.0838,0.0942,0.0999,0.1081,0.1211,0.1288,0.1343,0.1415,0.1407,0.1434,0.1455,0.1464,0.1468,0.1471,0.1447,0.1449,0.1434,0.1434,0.1434,0,0.0406,0.0468,0.0509,0.0558,0.0613,0.0675,0.0736,0.0803,0.0922,0.0973,0.0974,0.1169,0.1239,0.1373,0.14,0.1428,0.141,0.1429,0.1467,0.1471,0.1474,0.1449,0.145,0.1435,0.1435,0.1435,0.1434,0,0.0442,0.0494,0.0514,0.0603,0.0664,0.0723,0.0821,0.0886,0.0945,0.1018,0.1144,0.1232,0.1342,0.1379,0.1421,0.1498,0.1468,0.147,0.1448,0.148,0.1452,0.1453,0.1436,0.1436,0.1436,0.1435,0,0,0.043,0.0521,0.0533,0.0581,0.0695,0.0753,0.0857,0.0979,0.1048,0.1142,0.1236,0.1379,0.1398,0.146,0.1511,0.1528,0.1534,0.1506,0.1506,0.147,0.1519,0.1498,0.1496,0.153,0.1531,0.1531,0.1481,0,0.0455,0.0534,0.059,0.0692,0.0749,0.0839,0.0935,0.1045,0.1132,0.1231,0.1317,0.1417,0.1438,0.148,0.1507,0.1545,0.1541,0.1546,0.1505,0.1503,0.1471,0.1499,0.1442,0.1394,0.1482,0.1482,0.1482,0,0.0488,0.0539,0.0624,0.0742,0.0775,0.0845,0.0996,0.1089,0.123,0.1291,0.1385,0.1445,0.1535,0.1514,0.1566,0.1561,0.1538,0.1539,0.1537,0.1517,0.1486,0.1383,0.1392,0.1419,0.1484,0.1484,0.1483,0,0.0465,0.0574,0.0637,0.0682,0.0819,0.0875,0.0955,0.1099,0.118,0.1312,0.1362,0.1472,0.1517,0.1528,0.155,0.1547,0.1563,0.1556,0.1508,0.1504,0.1451,0.1442,0.1475,0.1552,0.1552,0.1552,0.1552,0,0.0489,0.0546,0.0621,0.0664,0.0751,0.0847,0.0952,0.105,0.1174,0.1262,0.1368,0.1439,0.1515,0.155,0.1548,0.1538,0.1555,0.1517,0.1501,0.1453,0.1445,0.1462,0.1503,0.155,0.155,0.1551,0.1551,0,0.0476,0.0524,0.0599,0.0708,0.0741,0.08,0.0931,0.1008,0.1114,0.1224,0.1259,0.1406,0.1455,0.1507,0.153,0.1526,0.1534,0.1498,0.1427,0.1405,0.1396,0.144,0.1456,0.1516,0.1442,0.1441,0.1441,0,0.0483,0.0512,0.0603,0.0639,0.0687,0.0773,0.0842,0.0968,0.1046,0.1202,0.125,0.1339,0.1415,0.1455,0.1462,0.1449,0.1494,0.1381,0.1384,0.1398,0.1435,0.1455,0.1508,0.1301,0.1299,0.1298,0.1297,0,0.0503,0.0518,0.0574,0.0624,0.0684,0.0764,0.0856,0.0901,0.1047,0.1124,0.1227,0.129,0.1352,0.1356,0.136,0.1351,0.1419,0.1352,0.1391,0.1358,0.1358,0.1406,0.1314,0.1285,0.1286,0.1287,0.1287,0.1288,0.0511,0.0533,0.0578,0.063,0.069,0.0752,0.0795,0.0884,0.0974,0.1072,0.1155,0.1209,0.1257,0.1274,0.1285,0.1271,0.1333,0.1249,0.1304,0.1324,0.139,0.1266,0.1214,0.1215,0.1215,0.1216,0.1217,0,0.0523,0.0543,0.0587,0.0647,0.0689,0.0727,0.0813,0.0835,0.0899,0.0973,0.104,0.1069,0.1116,0.1162,0.1176,0.1209,0.1251,0.1237,0.1256,0.1321,0.1208,0.121,0.1126,0.1126,0.1126,0.1126,0.1126,0.1125,0.0537,0.0561,0.0572,0.0629,0.0665,0.0701,0.0731,0.075,0.0789,0.0797,0.0803,0.0853,0.0947,0.1088,0.1184,0.1218,0.1345,0.128,0.1412,0.1317,0.1323,0.1328,0.1338,0.1283,0.1283,0.1483,0.1485,0.1486]}],[{"header":{"parameterUnit":"m.s-1","parameterCategory":2,"la1":30.2991,"la2":30.254,"lo1":-89.0895,"lo2":-89.0444,"dy":0.0017,"dx":0.0017,"nx":28,"ny":28,"refTime":"2024-07-16T09:00:00:Z","depth":"2","parameterNumber":2,"parameterNumberName":"U-component_of_CURRENTS"},"data":[0,0,0,0,0,0,0,0,0,0,0,0,0,0,0,0,0,0,0,0,0,0,0,0,0,0,0,0,0,0,0,0,0,0,0,0,0,0,0,0,0,0,0,0,0,0,0,0,0,0,0,0,0,0,0,0,0,0,0.2258,0.2258,0,0.2415,0.2418,0.2421,0.2621,0.2623,0.2624,0.2626,0.2804,0.2807,0.281,0,0,0,0,0,0,0,0,0,0,0,0,0,0.2056,0.2061,0.2257,0.2258,0.2259,0.2415,0.2418,0.2422,0.2621,0.2623,0.2625,0.2627,0.2803,0.2806,0.281,0,0,0,0,0,0,0,0,0,0,0,0,0,0.2187,0.2062,0.2257,0.2365,0.2375,0.2414,0.2419,0.2423,0.262,0.2623,0.2625,0.2628,0.2802,0.2806,0.2811,0.2786,0,0,0.2825,0.2827,0,0,0,0,0,0,0,0,0.2179,0.2196,0.2349,0.2357,0.2369,0.2487,0.2412,0.254,0.2619,0.2543,0.2626,0.2629,0.2688,0.2702,0.2748,0.2794,0.2802,0.2825,0.2828,0.283,0.2831,0,0,0,0,0,0,0,0.217,0.219,0.2336,0.2349,0.2361,0.2379,0.2404,0.2438,0.2611,0.255,0.2561,0.2553,0.2696,0.2743,0.2753,0.2804,0.2825,0.2829,0.2832,0.2834,0.296,0.296,0,0,0,0,0,0,0.2121,0.2182,0.233,0.2339,0.2261,0.238,0.2408,0.2459,0.2611,0.2632,0.2551,0.2562,0.2734,0.2747,0.276,0.2834,0.283,0.2834,0.2837,0.2959,0.296,0.296,0,0,0,0,0,0,0.2117,0.2135,0.2324,0.2247,0.2271,0.238,0.2437,0.2461,0.2545,0.2608,0.2633,0.2612,0.2736,0.2753,0.2829,0.2838,0.2836,0.2841,0.2958,0.2959,0.296,0.292,0,0,0,0,0,0,0.2112,0.2135,0.22,0.2246,0.2273,0.2366,0.2433,0.2461,0.2525,0.2543,0.2666,0.2685,0.274,0.2822,0.2833,0.2844,0.2844,0.2958,0.2959,0.296,0.292,0.2919,0.2918,0,0,0,0,0,0.2105,0.2186,0.2204,0.2222,0.2347,0.2365,0.2384,0.2476,0.2525,0.2565,0.2652,0.2683,0.2837,0.2826,0.284,0.2852,0.2957,0.2958,0.296,0.2921,0.2919,0.2918,0,0,0,0,0,0,0.2176,0.2212,0.2235,0.2338,0.2345,0.2393,0.2458,0.2481,0.2584,0.2631,0.2691,0.2715,0.2795,0.2819,0.2805,0.2892,0.29,0.2904,0.2866,0.2865,0.2864,0.286,0.2848,0,0,0,0,0,0.2199,0.2263,0.2268,0.2355,0.236,0.2404,0.2438,0.2481,0.2543,0.2597,0.2681,0.2758,0.2801,0.2831,0.2901,0.2929,0.2921,0.2946,0.2945,0.2944,0.295,0.2941,0.2938,0.2964,0.2964,0.2964,0,0,0.2255,0.2277,0.2324,0.2368,0.2404,0.2412,0.2441,0.2497,0.252,0.2592,0.2714,0.2774,0.2815,0.2877,0.2909,0.29,0.2926,0.2945,0.2944,0.2951,0.2942,0.2939,0.2936,0.2965,0.2965,0.2965,0,0,0.232,0.2408,0.2441,0.2437,0.2452,0.2471,0.2475,0.2533,0.2591,0.2643,0.2722,0.278,0.2858,0.2898,0.2909,0.293,0.2936,0.2958,0.2931,0.2921,0.2918,0.2916,0.2868,0.2861,0.2937,0.2937,0.2937,0,0.2396,0.2422,0.2453,0.2447,0.2449,0.2484,0.2484,0.2532,0.2617,0.2638,0.2682,0.2804,0.2855,0.2878,0.2906,0.2926,0.2916,0.2928,0.2917,0.2915,0.2913,0.2864,0.2858,0.2936,0.2936,0.2936,0.2936,0,0.2406,0.2453,0.2474,0.2478,0.2488,0.2509,0.2515,0.2572,0.2623,0.2646,0.2716,0.2792,0.2843,0.2869,0.2894,0.2913,0.2907,0.2928,0.2912,0.2907,0.2857,0.285,0.2933,0.2934,0.2934,0.2935,0,0,0.2525,0.2491,0.2497,0.2491,0.2502,0.2508,0.2538,0.2545,0.2558,0.2647,0.2654,0.2745,0.2792,0.2812,0.2864,0.2867,0.284,0.2897,0.2897,0.2834,0.2794,0.2448,0.2409,0.2864,0.2864,0.2864,0.275,0,0.253,0.2498,0.2481,0.2493,0.2491,0.2504,0.2514,0.2534,0.2562,0.2597,0.2643,0.2693,0.276,0.2791,0.2806,0.2863,0.283,0.2867,0.2823,0.2821,0.2502,0.2391,0.2374,0.2241,0.2744,0.2743,0.2742,0,0.2529,0.2506,0.2485,0.2477,0.2477,0.249,0.2498,0.2507,0.2526,0.2542,0.2579,0.2628,0.2678,0.2723,0.2761,0.279,0.2784,0.2803,0.2799,0.2489,0.2462,0.2338,0.2211,0.2732,0.2733,0.2733,0.2734,0,0.2544,0.2525,0.2507,0.25,0.2486,0.2494,0.2501,0.2505,0.2494,0.252,0.2513,0.2573,0.2611,0.2638,0.2668,0.2726,0.2668,0.2738,0.2404,0.238,0.2357,0.2327,0.2709,0.2709,0.2709,0.271,0.271,0,0.2542,0.2538,0.2521,0.2508,0.2501,0.2503,0.2487,0.2494,0.2482,0.2454,0.2506,0.2492,0.26,0.2579,0.2613,0.2439,0.2602,0.2352,0.2306,0.2332,0.2303,0.2747,0.2753,0.2705,0.2706,0.2707,0.2708,0,0.2557,0.253,0.2527,0.2514,0.2507,0.2512,0.2468,0.2444,0.2449,0.2411,0.2418,0.2438,0.2379,0.2394,0.2408,0.231,0.2222,0.2117,0.2095,0.204,0.1967,0.1974,0.1731,0.1717,0.1706,0.1696,0.1688,0,0.2545,0.2549,0.2537,0.2513,0.2509,0.2491,0.2456,0.2437,0.2397,0.2361,0.2337,0.2271,0.2163,0.1972,0.1872,0.1724,0.1895,0.1517,0.1578,0.1875,0.1858,0.1883,0.1904,0.1572,0.1564,0.1557,0.1552,0,0.2541,0.2557,0.2532,0.2497,0.2469,0.241,0.237,0.2319,0.2283,0.2232,0.2146,0.2053,0.1847,0.1631,0.1346,0.1288,0.153,0.1349,0.1713,0.1746,0.1694,0.1687,0.1721,0.149,0.1497,0.1501,0.1504,0.1507,0.2537,0.2531,0.2504,0.2463,0.2417,0.2329,0.2236,0.2147,0.2038,0.1868,0.1899,0.1653,0.1551,0.1041,0.0953,0.0885,0.098,0.096,0.0999,0.1041,0.0965,0.0886,0.0519,0.052,0.052,0.0521,0.0521,0,0.2492,0.2484,0.2454,0.2371,0.2287,0.2285,0.2159,0.2003,0.1799,0.1625,0.1455,0.1125,0.0878,0.081,0.0629,0.0484,0.0694,0.044,0.0807,0.0862,0.0913,0.0849,0.0364,0.0364,0.0363,0.0362,0,0,0.2447,0.2402,0.2384,0.2244,0.2188,0.2009,0.1907,0.1678,0.149,0.1135,0.0922,0.0776,0.0744,0.053,0.0483,0.0426,0.0666,0.0398,0.053,0.1023,0.1074,0.1203,0.1156,0,0,0,0,0]},{"header":{"parameterUnit":"m.s-1","parameterCategory":2,"la1":30.2991,"la2":30.254,"lo1":-89.0895,"lo2":-89.0444,"dy":0.0017,"dx":0.0017,"nx":28,"ny":28,"refTime":"2024-07-16T09:00:00:Z","depth":"2","parameterNumber":3,"parameterNumberName":"V-component_of_CURRENTS"},"data":[0,0,0,0,0,0,0,0,0,0,0,0,0,0,0,0,0,0,0,0,0,0,0,0,0,0,0,0,0,0,0,0,0,0,0,0,0,0,0,0,0,0,0,0,0,0,0,0,0,0,0,0,0,0,0,0,0,0,-0.039,-0.039,0,-0.0226,-0.0223,-0.022,-0.0073,-0.0072,-0.0072,-0.0071,0.0166,0.0172,0.0178,0,0,0,0,0,0,0,0,0,0,0,0,0,-0.0538,-0.0535,-0.039,-0.0389,-0.0389,-0.0227,-0.0223,-0.022,-0.0073,-0.0072,-0.0071,-0.0071,0.0164,0.0171,0.0178,0,0,0,0,0,0,0,0,0,0,0,0,0,-0.0422,-0.0534,-0.039,-0.0305,-0.0297,-0.0227,-0.0223,-0.0219,-0.0073,-0.0072,-0.0071,-0.0071,0.0162,0.017,0.0179,0.0216,0,0,0.0206,0.0209,0,0,0,0,0,0,0,0,-0.0428,-0.0415,-0.0319,-0.0311,-0.0302,-0.0181,-0.0189,-0.0074,-0.0073,-0.0144,-0.0071,-0.007,0.0048,0.0066,0.0113,0.0228,0.0238,0.0206,0.0212,0.0216,0.0218,0,0,0,0,0,0,0,-0.0437,-0.0421,-0.0312,-0.0318,-0.0308,-0.0264,-0.0245,-0.0165,-0.0043,-0.0138,-0.013,-0.0133,0.0055,0.0104,0.0119,0.0241,0.0206,0.0214,0.0219,0.0223,0.0524,0.0527,0,0,0,0,0,0,-0.0486,-0.0428,-0.0317,-0.0308,-0.0379,-0.0263,-0.0241,-0.021,-0.0045,-0.0024,-0.0134,-0.0127,0.0089,0.0109,0.0128,0.0309,0.0215,0.0224,0.0229,0.0522,0.0525,0.0528,0,0,0,0,0,0,-0.0489,-0.0476,-0.0324,-0.0377,-0.0357,-0.0263,-0.0227,-0.0207,-0.0152,-0.0046,-0.002,-0.0102,0.009,0.0116,0.0261,0.0314,0.0228,0.0235,0.0518,0.0523,0.0526,0.0588,0,0,0,0,0,0,-0.0493,-0.0477,-0.0459,-0.038,-0.0356,-0.0276,-0.0229,-0.0205,-0.0162,-0.0151,-0.001,0.0013,0.0093,0.0248,0.0269,0.0324,0.0242,0.0515,0.052,0.0525,0.0582,0.0594,0.0603,0,0,0,0,0,-0.0498,-0.0479,-0.0457,-0.0445,-0.0336,-0.0277,-0.0257,-0.0181,-0.0162,-0.0128,0.0,0.0009,0.0295,0.0258,0.0283,0.0341,0.0512,0.0519,0.0525,0.0578,0.0591,0.0603,0,0,0,0,0,0,-0.0516,-0.0462,-0.0436,-0.0395,-0.0343,-0.0256,-0.0229,-0.0189,-0.0064,-0.0039,0.0061,0.0096,0.0246,0.0277,0.0233,0.0441,0.0397,0.0408,0.0429,0.0442,0.0453,0.0434,0.025,0,0,0,0,0,-0.0523,-0.0498,-0.0438,-0.0404,-0.0386,-0.0312,-0.0279,-0.0223,-0.0122,-0.0067,0.0055,0.0173,0.0288,0.035,0.0463,0.0569,0.0517,0.0616,0.0627,0.0635,0.0638,0.0569,0.0571,0.0548,0.0548,0.0548,0,0,-0.0522,-0.0493,-0.0475,-0.041,-0.0363,-0.0286,-0.0284,-0.0229,-0.0126,-0.0062,0.014,0.0224,0.0327,0.0483,0.0545,0.0515,0.0622,0.0643,0.065,0.0648,0.0575,0.0577,0.0578,0.0553,0.0552,0.0551,0,0,-0.0511,-0.0484,-0.0455,-0.0413,-0.0357,-0.0284,-0.0276,-0.0161,-0.0075,0.0088,0.0178,0.0269,0.0473,0.0552,0.0609,0.0723,0.0686,0.0779,0.0816,0.075,0.0749,0.0748,0.07,0.0694,0.0775,0.0775,0.0775,0,-0.0492,-0.045,-0.0437,-0.0393,-0.0342,-0.0282,-0.0208,-0.0107,0.0064,0.014,0.0161,0.0432,0.0492,0.0648,0.0712,0.0741,0.0719,0.076,0.0757,0.0755,0.0753,0.0703,0.0696,0.0779,0.0778,0.0778,0.0777,0,-0.0468,-0.041,-0.0396,-0.0296,-0.0239,-0.0175,-0.0057,0.0056,0.0156,0.0254,0.0432,0.0529,0.0663,0.0705,0.0758,0.0815,0.0812,0.0778,0.071,0.0758,0.0705,0.0695,0.0784,0.0783,0.0781,0.0781,0,0,-0.0425,-0.0379,-0.0362,-0.0293,-0.0181,-0.0111,0.0042,0.0201,0.0309,0.0456,0.0576,0.0745,0.0762,0.0826,0.0881,0.0842,0.0798,0.0827,0.0822,0.0754,0.0686,0.0747,0.0742,0.0778,0.0777,0.0776,0.0659,0,-0.0374,-0.0298,-0.0274,-0.0117,-0.0041,0.0049,0.0191,0.0334,0.0459,0.0603,0.0658,0.0798,0.0822,0.0877,0.0849,0.0831,0.0779,0.0835,0.0673,0.0668,0.0694,0.0734,0.0658,0.0554,0.0649,0.0648,0.0646,0,-0.0317,-0.027,-0.0158,-0.0007,0.0033,0.0155,0.0366,0.0493,0.0657,0.073,0.0827,0.0882,0.0925,0.0882,0.0827,0.088,0.0791,0.0736,0.0728,0.0754,0.0712,0.0523,0.0533,0.063,0.0632,0.0633,0.0634,0,-0.0272,-0.0151,-0.0058,-0.0012,0.015,0.0256,0.0376,0.0551,0.0655,0.0803,0.0853,0.0923,0.0944,0.0859,0.079,0.0801,0.0677,0.064,0.0606,0.0608,0.0493,0.049,0.053,0.0531,0.0531,0.0531,0.0531,0,-0.0206,-0.0109,-0.0018,0.0045,0.0203,0.0307,0.0486,0.0607,0.0741,0.0842,0.0918,0.097,0.0935,0.0888,0.079,0.0703,0.0655,0.0624,0.0585,0.0522,0.0522,0.0547,0.055,0.0527,0.0528,0.0529,0.0529,0,-0.0153,-0.0116,0.0023,0.0177,0.0231,0.036,0.053,0.0645,0.0766,0.0881,0.0915,0.0991,0.0946,0.0898,0.0748,0.0707,0.059,0.0549,0.0509,0.0472,0.0561,0.0569,0.0494,0.0496,0.0497,0.0498,0.0498,0,-0.013,-0.0059,0.0095,0.0163,0.0247,0.0408,0.0507,0.0653,0.0748,0.0883,0.0923,0.0946,0.095,0.0821,0.0721,0.0581,0.0579,0.0462,0.046,0.0589,0.0558,0.0565,0.0572,0.0316,0.0315,0.0314,0.0314,0,-0.0059,0.0,0.0088,0.0204,0.0326,0.0438,0.0589,0.0639,0.0789,0.0853,0.0907,0.0911,0.0858,0.0725,0.0631,0.0529,0.0497,0.045,0.0536,0.0382,0.0423,0.0393,0.0404,0.0308,0.0308,0.0309,0.0309,0.0309,-0.001,0.0055,0.0149,0.0275,0.0381,0.0479,0.0541,0.063,0.0711,0.0784,0.081,0.0784,0.0737,0.0567,0.0508,0.0465,0.0453,0.0393,0.0392,0.0393,0.0438,0.0484,0.0387,0.0388,0.0389,0.039,0.039,0,0.0051,0.0112,0.0211,0.0341,0.0433,0.0496,0.0599,0.0603,0.0626,0.0667,0.0676,0.0556,0.0491,0.0467,0.0373,0.0356,0.0329,0.0364,0.0296,0.0299,0.0303,0.0344,0.0267,0.0268,0.0269,0.0269,0,0,0.0068,0.0151,0.0199,0.0353,0.0447,0.0528,0.0562,0.0518,0.0515,0.0448,0.0432,0.0459,0.0436,0.0356,0.0315,0.0286,0.031,0.029,0.0369,0.0289,0.0295,0.0279,0.0342,0,0,0,0,0]}],[{"header":{"parameterUnit":"m.s-1","parameterCategory":2,"la1":30.2991,"la2":30.254,"lo1":-89.0895,"lo2":-89.0444,"dy":0.0017,"dx":0.0017,"nx":28,"ny":28,"refTime":"2024-07-16T09:00:00:Z","depth":"4","parameterNumber":2,"parameterNumberName":"U-component_of_CURRENTS"},"data":[0,0,0,0,0,0,0,0,0,0,0,0,0,0,0,0,0,0,0,0,0,0,0,0,0,0,0,0,0,0,0,0,0,0,0,0,0,0,0,0,0,0,0,0,0,0,0,0,0,0,0,0,0,0,0,0,0,0,-0.0448,-0.0449,0,-0.0485,-0.0485,-0.0486,-0.0507,-0.0507,-0.0507,-0.0508,-0.0517,-0.0517,-0.0517,0,0,0,0,0,0,0,0,0,0,0,0,0,-0.0389,-0.039,-0.0448,-0.0449,-0.0449,-0.0485,-0.0485,-0.0486,-0.0507,-0.0507,-0.0508,-0.0508,-0.0517,-0.0517,-0.0517,0,0,0,0,0,0,0,0,0,0,0,0,0,-0.0418,-0.0391,-0.0448,-0.0466,-0.0468,-0.0485,-0.0486,-0.0486,-0.0507,-0.0507,-0.0508,-0.0508,-0.0517,-0.0517,-0.0517,-0.051,0,0,-0.0517,-0.0517,0,0,0,0,0,0,0,0,-0.0416,-0.042,-0.0462,-0.0464,-0.0467,-0.0493,-0.0468,-0.0493,-0.0507,-0.049,-0.0508,-0.0508,-0.0507,-0.0508,-0.0512,-0.051,-0.051,-0.0517,-0.0517,-0.0517,-0.0517,0,0,0,0,0,0,0,-0.0414,-0.0418,-0.0461,-0.0463,-0.0466,-0.047,-0.0474,-0.0473,-0.0494,-0.0492,-0.0494,-0.0501,-0.0508,-0.0512,-0.0512,-0.0511,-0.0517,-0.0517,-0.0517,-0.0517,-0.046,-0.0459,0,0,0,0,0,0,-0.0413,-0.0416,-0.046,-0.0462,-0.0444,-0.0471,-0.0475,-0.0483,-0.0495,-0.0498,-0.05,-0.0501,-0.0512,-0.0512,-0.0513,-0.0433,-0.0517,-0.0517,-0.0517,-0.0462,-0.046,-0.0458,0,0,0,0,0,0,-0.0412,-0.0417,-0.0458,-0.0441,-0.0447,-0.0471,-0.048,-0.0484,-0.0501,-0.0502,-0.0504,-0.0515,-0.0512,-0.0513,-0.0496,-0.0436,-0.0517,-0.0517,-0.0463,-0.0461,-0.0459,-0.0319,0,0,0,0,0,0,-0.041,-0.0416,-0.0431,-0.0442,-0.0448,-0.0473,-0.048,-0.0484,-0.0504,-0.0507,-0.0515,-0.0516,-0.0512,-0.0496,-0.0496,-0.0438,-0.0517,-0.0465,-0.0462,-0.046,-0.0325,-0.0312,-0.0301,0,0,0,0,0,-0.0408,-0.0423,-0.0432,-0.0438,-0.0465,-0.0473,-0.0477,-0.0494,-0.0505,-0.0511,-0.0499,-0.0516,-0.0478,-0.0495,-0.0495,-0.0435,-0.0467,-0.0463,-0.046,-0.0331,-0.0315,-0.0301,0,0,0,0,0,0,-0.0405,-0.0427,-0.0437,-0.0459,-0.0468,-0.0478,-0.0493,-0.0501,-0.0499,-0.0503,-0.0501,-0.05,-0.0458,-0.048,-0.0499,-0.0414,-0.0474,-0.047,-0.0375,-0.036,-0.0348,-0.0341,-0.0517,0,0,0,0,0,-0.0412,-0.0431,-0.0444,-0.0462,-0.047,-0.0483,-0.0494,-0.0501,-0.0499,-0.0502,-0.0477,-0.0465,-0.0443,-0.0431,-0.0418,-0.0381,-0.0464,-0.0345,-0.0332,-0.0321,-0.0317,-0.0431,-0.0429,-0.0447,-0.0447,-0.0447,0,0,-0.0419,-0.0432,-0.0446,-0.0464,-0.0476,-0.0469,-0.0491,-0.0506,-0.0475,-0.0501,-0.0437,-0.0424,-0.0427,-0.0366,-0.035,-0.0377,-0.0353,-0.0317,-0.0307,-0.0309,-0.0427,-0.0426,-0.0425,-0.0445,-0.0445,-0.0445,0,0,-0.043,-0.0451,-0.0468,-0.0471,-0.0487,-0.0478,-0.0483,-0.0472,-0.0447,-0.0385,-0.0392,-0.0364,-0.0297,-0.0296,-0.0288,-0.0217,-0.0288,-0.0186,-0.0107,-0.0216,-0.0217,-0.0218,-0.0296,-0.0306,-0.0175,-0.0175,-0.0175,0,-0.044,-0.0453,-0.0472,-0.0477,-0.0465,-0.0478,-0.0464,-0.0441,-0.0408,-0.0366,-0.0345,-0.0266,-0.0268,-0.0233,-0.017,-0.0188,-0.0245,-0.0156,-0.0202,-0.0205,-0.0209,-0.029,-0.0302,-0.0168,-0.0169,-0.0169,-0.017,0,-0.0448,-0.0461,-0.0468,-0.0464,-0.0448,-0.0447,-0.0407,-0.0361,-0.0303,-0.0263,-0.0185,-0.0174,-0.0122,-0.0108,-0.0091,-0.0093,-0.0122,-0.0178,-0.0241,-0.0199,-0.0286,-0.0302,-0.0158,-0.016,-0.0162,-0.0164,0,0,-0.0461,-0.0473,-0.0477,-0.046,-0.0439,-0.0418,-0.0346,-0.0278,-0.0225,-0.0151,-0.0088,-0.0008,0.0013,0.002,0.0017,-0.0051,-0.0098,-0.0082,-0.0091,-0.016,-0.0305,-0.0183,-0.019,-0.0152,-0.0154,-0.0156,-0.0347,0,-0.0461,-0.0468,-0.0453,-0.0415,-0.0404,-0.0354,-0.0274,-0.0207,-0.0131,-0.0066,-0.0051,0.0016,0.0054,0.0098,0.0045,-0.0082,-0.0134,-0.0039,-0.0335,-0.0344,-0.0243,-0.0202,-0.0163,-0.0359,-0.0363,-0.0366,-0.0368,0,-0.0469,-0.0464,-0.0443,-0.037,-0.0354,-0.0291,-0.0163,-0.0096,-0.0019,0.0042,0.01,0.0109,0.009,0.0086,-0.0087,-0.0017,-0.0114,-0.0228,-0.0241,-0.0189,-0.025,-0.0419,-0.0397,-0.0395,-0.0393,-0.0391,-0.0389,0,-0.0473,-0.0445,-0.0418,-0.0403,-0.0324,-0.0237,-0.0146,-0.0039,0.0017,0.0111,0.0125,0.0127,0.009,-0.0024,-0.0175,-0.0121,-0.0443,-0.0431,-0.0423,-0.0418,-0.0539,-0.0536,-0.0571,-0.057,-0.057,-0.0569,-0.0569,0,-0.0464,-0.0446,-0.04,-0.0387,-0.028,-0.0199,-0.0074,0.0021,0.0097,0.0108,0.019,0.0148,0.0058,-0.0111,-0.0215,-0.0366,-0.0478,-0.0395,-0.0454,-0.047,-0.0458,-0.0549,-0.0544,-0.0576,-0.0575,-0.0574,-0.0572,0,-0.0471,-0.0463,-0.0444,-0.0353,-0.0291,-0.0198,-0.0034,0.0027,0.0123,0.0115,0.0142,0.0118,-0.0002,-0.0143,-0.0393,-0.0429,-0.06,-0.0641,-0.0652,-0.0713,-0.0475,-0.0461,-0.0578,-0.0575,-0.0572,-0.057,-0.0569,0,-0.047,-0.0471,-0.0441,-0.0397,-0.0331,-0.0185,-0.0098,0.0046,0.0066,0.0062,0.0007,-0.0042,-0.0067,-0.0315,-0.0436,-0.0591,-0.0598,-0.0695,-0.0512,-0.0427,-0.0475,-0.0464,-0.0453,-0.0565,-0.0564,-0.0564,-0.0563,0,-0.047,-0.0496,-0.0494,-0.0437,-0.0339,-0.025,-0.0127,-0.01,-0.0017,0.0002,-0.0035,-0.0047,-0.0184,-0.026,-0.0385,-0.052,-0.0622,-0.0668,-0.067,-0.0499,-0.0414,-0.0461,-0.0453,-0.0555,-0.0556,-0.0557,-0.0557,0,-0.0491,-0.0506,-0.0539,-0.0451,-0.0383,-0.0308,-0.0221,-0.0161,-0.0098,-0.0077,-0.0136,-0.017,-0.0209,-0.0236,-0.0407,-0.0442,-0.0376,-0.0392,-0.0407,-0.0417,-0.0268,-0.013,-0.0225,0,0,0,0,0,-0.0487,-0.0516,-0.0514,-0.0464,-0.0423,-0.0354,-0.0265,-0.0203,-0.0161,-0.0162,-0.0101,-0.018,-0.0204,-0.0249,-0.024,-0.0353,-0.0429,-0.035,-0.0466,-0.0509,-0.0518,-0.0352,0,0,0,0,0,0,-0.0486,-0.0529,-0.055,-0.0502,-0.0453,-0.0392,-0.0315,-0.0281,-0.0246,-0.0206,-0.0201,-0.0186,-0.0213,-0.0203,-0.0246,-0.0262,-0.0333,-0.0366,-0.0366,-0.0503,-0.0512,-0.052,-0.0352,0,0,0,0,0]},{"header":{"parameterUnit":"m.s-1","parameterCategory":2,"la1":30.2991,"la2":30.254,"lo1":-89.0895,"lo2":-89.0444,"dy":0.0017,"dx":0.0017,"nx":28,"ny":28,"refTime":"2024-07-16T09:00:00:Z","depth":"4","parameterNumber":3,"parameterNumberName":"V-component_of_CURRENTS"},"data":[0,0,0,0,0,0,0,0,0,0,0,0,0,0,0,0,0,0,0,0,0,0,0,0,0,0,0,0,0,0,0,0,0,0,0,0,0,0,0,0,0,0,0,0,0,0,0,0,0,0,0,0,0,0,0,0,0,0,0.0349,0.0349,0,0.039,0.0391,0.0391,0.0416,0.0416,0.0416,0.0417,0.0446,0.0447,0.0447,0,0,0,0,0,0,0,0,0,0,0,0,0,0.0271,0.0273,0.0349,0.0349,0.035,0.039,0.0391,0.0391,0.0416,0.0416,0.0417,0.0417,0.0446,0.0447,0.0447,0,0,0,0,0,0,0,0,0,0,0,0,0,0.0307,0.0273,0.0348,0.0368,0.037,0.039,0.0391,0.0391,0.0416,0.0416,0.0417,0.0417,0.0446,0.0447,0.0447,0.0447,0,0,0.045,0.0451,0,0,0,0,0,0,0,0,0.0305,0.031,0.0364,0.0366,0.0369,0.0399,0.0375,0.041,0.0416,0.0397,0.0417,0.0417,0.043,0.0432,0.0438,0.0449,0.045,0.045,0.0451,0.0451,0.0452,0,0,0,0,0,0,0,0.0303,0.0308,0.0364,0.0365,0.0368,0.0368,0.0373,0.0381,0.041,0.0399,0.0401,0.0407,0.0431,0.0437,0.0439,0.045,0.045,0.0451,0.0452,0.0452,0.0403,0.0401,0,0,0,0,0,0,0.03,0.0306,0.0363,0.0366,0.0338,0.0369,0.0375,0.0388,0.0411,0.0415,0.0407,0.0408,0.0435,0.0438,0.044,0.0437,0.0451,0.0452,0.0453,0.0405,0.0403,0.0401,0,0,0,0,0,0,0.0299,0.0305,0.0361,0.0337,0.0344,0.037,0.0385,0.0389,0.0429,0.0417,0.0421,0.0446,0.0436,0.0439,0.0464,0.0438,0.0453,0.0453,0.0407,0.0404,0.0402,0.0433,0,0,0,0,0,0,0.0296,0.0305,0.0325,0.0337,0.0346,0.0376,0.0385,0.039,0.043,0.0433,0.0451,0.0452,0.0436,0.0462,0.0465,0.044,0.0454,0.041,0.0406,0.0403,0.0434,0.0431,0.0429,0,0,0,0,0,0.0294,0.0317,0.0326,0.0333,0.0369,0.0376,0.038,0.0399,0.0432,0.044,0.046,0.0453,0.0439,0.0464,0.0466,0.0441,0.0411,0.0407,0.0403,0.0435,0.0432,0.0429,0,0,0,0,0,0,0.0298,0.0322,0.0332,0.0364,0.037,0.0381,0.0404,0.0423,0.0449,0.0484,0.0466,0.0467,0.0463,0.0451,0.0478,0.0407,0.041,0.0406,0.0433,0.043,0.0427,0.0432,0.0455,0,0,0,0,0,0.0307,0.0331,0.0343,0.0369,0.0381,0.0403,0.0419,0.0446,0.0465,0.048,0.0492,0.0484,0.0441,0.0443,0.042,0.0418,0.0413,0.0386,0.0384,0.0382,0.0382,0.0341,0.0336,0.0387,0.0387,0.0387,0,0,0.0316,0.0333,0.0348,0.0371,0.0389,0.0407,0.0414,0.0466,0.0477,0.048,0.0519,0.0496,0.0438,0.0412,0.0406,0.041,0.0371,0.0377,0.0376,0.0377,0.0336,0.0332,0.0328,0.0384,0.0385,0.0385,0,0,0.0329,0.0365,0.0382,0.0393,0.0435,0.045,0.0473,0.0514,0.0527,0.0555,0.0531,0.0506,0.0487,0.0423,0.0383,0.0357,0.0359,0.0337,0.0339,0.03,0.0296,0.0293,0.0321,0.032,0.0337,0.0337,0.0337,0,0.0342,0.0373,0.0385,0.0401,0.0422,0.0472,0.0498,0.0508,0.0555,0.0545,0.0573,0.0494,0.0474,0.0374,0.036,0.0352,0.0359,0.0364,0.0301,0.0297,0.0293,0.0322,0.032,0.0338,0.0338,0.0338,0.0338,0,0.0351,0.0393,0.0411,0.0445,0.0453,0.0507,0.0516,0.0546,0.0584,0.0575,0.0529,0.0494,0.0437,0.0403,0.0382,0.0312,0.0339,0.0308,0.0321,0.0291,0.0322,0.032,0.0339,0.0339,0.0339,0.0339,0,0,0.0355,0.0411,0.0425,0.0449,0.0504,0.0514,0.0528,0.0527,0.0523,0.054,0.0489,0.0421,0.0418,0.037,0.0328,0.0292,0.0292,0.0303,0.03,0.0355,0.0264,0.0195,0.0187,0.0259,0.0258,0.0257,0.0314,0,0.0376,0.0422,0.0439,0.0492,0.052,0.0548,0.0539,0.0539,0.0532,0.0498,0.0432,0.0394,0.0394,0.038,0.0336,0.0275,0.0281,0.0283,0.0264,0.0264,0.0224,0.0178,0.0253,0.0313,0.0312,0.0312,0.0312,0,0.0382,0.0417,0.0477,0.0517,0.053,0.0571,0.0569,0.0569,0.0507,0.0491,0.0434,0.0391,0.032,0.0339,0.0265,0.0272,0.0294,0.0267,0.0268,0.0186,0.0187,0.0334,0.0308,0.0308,0.0308,0.0309,0.0309,0,0.0369,0.0442,0.0502,0.0524,0.0569,0.0598,0.0628,0.0586,0.0564,0.0509,0.0471,0.0385,0.034,0.0317,0.0282,0.0287,0.021,0.0206,0.0179,0.0178,0.0218,0.0221,0.0201,0.0201,0.0201,0.0201,0.0201,0,0.0373,0.0418,0.0527,0.0557,0.0617,0.0633,0.0658,0.0654,0.0609,0.0516,0.0498,0.0373,0.0333,0.0265,0.0271,0.0202,0.0217,0.0174,0.0164,0.0235,0.0238,0.0221,0.0222,0.0203,0.0203,0.0202,0.0202,0,0.0333,0.0409,0.0482,0.058,0.0623,0.0666,0.0717,0.0688,0.0677,0.0545,0.0533,0.0387,0.0266,0.025,0.0182,0.0175,0.0136,0.0139,0.0257,0.0255,0.0153,0.0156,0.0101,0.0098,0.0096,0.0094,0.0093,0,0.0312,0.0359,0.0511,0.056,0.0629,0.0702,0.0718,0.0735,0.0658,0.0487,0.0376,0.0269,0.0155,0.0058,0.0025,0.0063,0.007,0.0119,0.0098,0.0134,0.0132,0.0138,0.0142,0.009,0.0089,0.0088,0.0088,0,0.0265,0.0353,0.0409,0.0538,0.061,0.0631,0.0644,0.0584,0.0492,0.0488,0.0251,0.0169,0.0013,-0.0048,0.0017,0.002,0.0099,0.0097,0.0102,0.0082,0.012,0.0121,0.0128,0.0081,0.0082,0.0082,0.0083,0,0.024,0.0276,0.039,0.0487,0.0553,0.0517,0.0537,0.0443,0.04,0.0224,0.0111,-0.0007,-0.0061,-0.0078,-0.0077,-0.0035,-0.0036,0.0018,0.0027,0.0035,-0.0023,0.0014,-0.0079,0,0,0,0,0,0.0215,0.0247,0.0321,0.0389,0.0439,0.0486,0.0441,0.0423,0.0312,0.016,0.0159,0.0015,-0.0058,-0.0118,-0.0088,-0.0143,-0.004,-0.0111,0.0028,0.004,0.0048,-0.002,0,0,0,0,0,0,0.019,0.0254,0.0293,0.0291,0.0318,0.0333,0.0304,0.0233,0.0156,0.0072,0.0051,0.0047,0.0001,-0.0047,-0.0078,-0.0083,0.0011,-0.0126,-0.0126,0.0035,0.0043,0.005,-0.0018,0,0,0,0,0]}]]